FALCON 9 DEB (46592 NORAD) Tracking and Keplerian Element Data

This shows tracking and keplerian element data for the satellite.

Feedback or suggestion? Click here.




ElementValue
Catalog46592
NameFALCON 9 DEB
Epoch Orbit441
Epoch Day303.05993941
Epoch Year2020
RAAN327.0198
Inclination52.9871
Eccentricity0.0011827
Argument of Perigee27.0974
Mean Anonmoly333.0676
Mean Motion16.15326602
Decay Rate0.00741829
L11 46592U 20070BN 20303.05993941 .00741829 34183-3 52818-3 0 9993
L22 46592 52.9871 327.0198 0011827 27.0974 333.0676 16.15326602 4417

Live tracking and technical data element details for FALCON 9 DEB (NORAD 46592). FALCON 9 DEB can be tracked NOW for your location showing map with azimuth and elevation plus other details from your city location.

Track the satellite on the map from your city or location and see movement details for azimuth, elevation, latitude, longitude, range, height, and movement on the map or in text.







IsCatalogInMostPopularTable: catalog: 46592, numindb: 2
Update: records affected: 1



GetName: 46592 FALCON 9 DEB

Hit Count: updated at: Fri, 30 Oct 2020 01:17:30 GMT